Spokane Fairchild, WA

12:26 PM PDT on April 28, 2017 (GMT -0700)
Fairchild Air Force Base

Weather History for KSKA - September, 2013

Change the Weather History Date:

Monday, September 9, 2013

  Actual Average Record
Temperature  
Mean Temperature 66 °F -  
Max Temperature 80 °F 73 °F 90 °F (2011)
Min Temperature 52 °F 48 °F 37 °F (2000)
Cooling Degree Days 1    
Growing Degree Days 16 (Base 50)    
Moisture  
Dew Point 52 °F    
Average Humidity 61    
Maximum Humidity 89    
Minimum Humidity 36    
Precipitation  
Precipitation 0.00 in - - ()
Sea Level Pressure  
Sea Level Pressure 29.99 in    
Wind  
Wind Speed 4 mph (SSE)    
Max Wind Speed 7 mph    
Max Gust Speed -    
Visibility 10 miles    
Events      
Averages and records for this station are not official NWS values.
T = Trace of Precipitation, MM = Missing Value Source: NWS Daily Summary

Daily Weather History Graph

Daily Weather History Graph

Search for Another Location

Airport or City:

Trip Planner

Search our weather history database for the weather conditions in past years. The results will help you decide how hot, cold, wet, or windy it might be!

Date:

Astronomy

Sep. 09, 2013 Rise Set
Actual Time 6:20 AM PDT 7:14 PM PDT
Civil Twilight 5:49 AM PDT 7:45 PM PDT
Nautical Twilight 5:11 AM PDT 8:22 PM PDT
Astronomical Twilight 4:31 AM PDT 9:02 PM PDT
Moon 11:09 AM PDT (9/9) 9:10 PM PDT (9/9)
Length of Visible Light 13h 56m
Length of Day
12h 54m
Waxing Crescent, 20% of the Moon is Illuminated
Sep 9
Waxing Crescent
Sep 12
First Quarter
Sep 19
Full
Sep 26
Last Quarter
Oct 4
New

Hourly Weather History & Observations

Time (PDT) Temp. Dew Point Humidity Pressure Visibility Wind Dir Wind Speed Gust Speed Precip Events Conditions
12:58 AM 62.4 °F 51.8 °F 68% 29.99 in 10.0 mi SSW 5.8 mph - N/A   Overcast
1:58 AM 61.0 °F 50.5 °F 68% 29.99 in 10.0 mi Calm Calm - N/A   Clear
2:58 AM 57.2 °F 50.5 °F 78% 29.99 in 10.0 mi SE 2.3 mph - N/A   Clear
3:58 AM 57.0 °F 49.8 °F 77% 29.97 in 10.0 mi SE 4.6 mph - N/A   Clear
4:55 AM 54.9 °F 49.5 °F 82% 29.98 in 10.0 mi ESE 4.6 mph - N/A   Clear
5:58 AM 53.8 °F 49.8 °F 86% 29.99 in 10.0 mi Calm Calm - N/A   Clear
6:58 AM 52.3 °F 49.1 °F 89% 30.01 in 10.0 mi East 2.3 mph - N/A   Clear
7:58 AM 56.7 °F 51.4 °F 83% 30.02 in 10.0 mi East 2.3 mph - N/A   Clear
8:58 AM 62.4 °F 51.4 °F 67% 30.02 in 10.0 mi Variable 3.5 mph - N/A   Clear
9:58 AM 66.0 °F 52.3 °F 61% 30.04 in 10.0 mi ESE 3.5 mph - N/A   Clear
10:58 AM 69.6 °F 54.0 °F 57% 30.03 in 10.0 mi Variable 4.6 mph - N/A   Clear
11:58 AM 72.1 °F 54.9 °F 54% 30.03 in 10.0 mi Variable 6.9 mph - N/A   Clear
12:58 PM 75.4 °F 55.4 °F 50% 30.00 in 10.0 mi Variable 4.6 mph - N/A   Clear
1:58 PM 77.7 °F 55.8 °F 47% 29.99 in 10.0 mi South 6.9 mph - N/A   Clear
2:58 PM 78.4 °F 53.4 °F 42% 29.99 in 10.0 mi South 6.9 mph - N/A   Clear
3:58 PM 80.2 °F 52.2 °F 38% 29.96 in 10.0 mi SSW 4.6 mph - N/A   Clear
4:58 PM 80.6 °F 51.3 °F 36% 29.96 in 10.0 mi WSW 4.6 mph - N/A   Clear
5:58 PM 79.9 °F 51.1 °F 37% 29.96 in 10.0 mi North 1.2 mph - N/A   Clear
6:58 PM 77.0 °F 52.0 °F 42% 29.96 in 10.0 mi East 2.3 mph - N/A   Clear
7:58 PM 73.9 °F 51.4 °F 45% 29.96 in 8.0 mi SE 3.5 mph - N/A   Clear
8:58 PM 71.2 °F 52.0 °F 51% 29.96 in 10.0 mi South 2.3 mph - N/A   Clear
9:58 PM 67.6 °F 53.1 °F 59% 29.97 in 10.0 mi WSW 4.6 mph - N/A   Clear
10:58 PM 59.7 °F 53.4 °F 80% 29.99 in 10.0 mi WSW 2.3 mph - N/A   Clear
11:58 PM 66.0 °F 51.8 °F 60% 29.97 in 10.0 mi South 2.3 mph - N/A   Clear